Wind_Speed
22 19 18 18 18 19 19 20 19 18 20 22 20 19 21 22 22 21 20 19 19 19 18 18 18 18 18 18 18 18 18 19 19 19 20 20 20 21 21 21 21 21 21 20
24 21 20 19 18 19 20 21 21 21 22 23 23 22 22 23 23 22 20 19 20 20 21 20 20 20 20 20 20 20 21 21 21 21 21 21 21 22 22 22 22 22 22 22
24 22 20 20 19 19 20 21 21 22 25 23 24 24 25 24 23 22 23 21 22 22 22 22 22 22 22 22 22 22 22 22 22 22 22 22 22 23 23 23 23 24 24 24
26 23 22 22 21 21 21 23 24 24 25 25 25 27 26 25 24 24 24 23 24 23 23 23 23 23 23 23 23 23 23 23 23 23 23 23 24 24 24 24 24 24 25 25
26 24 22 23 24 22 22 25 25 25 25 27 27 28 28 26 26 26 25 26 25 25 24 24 24 23 23 24 24 24 24 24 24 24 24 25 25 26 26 26 26 26 26 26
27 26 25 25 26 25 24 27 27 26 26 27 27 27 29 29 27 26 26 27 27 27 27 26 26 25 25 25 25 25 26 26 25 26 26 27 28 27 27 28 28 28 29 28
29 28 28 28 28 27 28 29 29 28 28 29 29 28 29 29 29 28 28 28 28 27 27 27 27 27 27 27 27 27 27 27 27 28 28 29 29 28 29 29 29 30 30 29
30 29 30 30 29 30 31 31 31 31 31 31 31 31 31 30 30 30 30 30 29 29 28 28 28 28 28 28 28 29 29 29 29 29 29 29 30 30 30 31 31 31 31 30
31 32 33 30 30 31 32 32 32 34 34 34 34 33 33 33 31 31 31 30 30 30 30 30 29 29 29 29 30 30 30 30 30 30 30 30 30 30 31 32 32 32 32 31
33 34 34 32 33 33 32 32 32 33 35 36 35 34 33 33 34 33 32 32 31 30 30 30 29 30 30 31 31 31 30 30 30 30 30 30 31 31 32 32 32 33 33 32
36 35 36 35 35 35 34 33 33 34 34 34 34 34 33 32 33 33 32 31 32 31 31 30 30 31 31 31 31 32 31 31 31 31 31 31 32 32 32 32 32 32 33 33
37 36 35 36 35 36 36 35 34 34 34 34 34 35 35 34 33 34 33 33 33 33 32 31 30 31 32 31 32 32 32 31 31 32 32 31 31 32 32 32 32 32 33 33
35 35 35 36 36 36 36 36 35 36 35 34 34 34 35 34 33 33 33 32 31 32 32 31 31 31 31 31 31 31 31 31 31 32 31 31 32 32 32 32 32 32 32 33
35 36 36 35 36 35 35 35 35 35 35 34 34 33 33 33 33 33 33 32 32 32 31 31 31 30 31 31 31 31 31 31 31 31 31 31 31 31 32 32 32 32 32 32
35 35 35 35 35 35 35 35 35 35 34 34 33 33 33 33 32 33 32 32 32 32 31 32 31 31 31 31 31 30 30 31 31 31 32 32 32 32 33 33 33 32 32 32
33 33 34 34 34 35 35 35 35 35 34 34 34 34 34 33 32 31 32 32 32 32 32 32 32 32 32 31 31 31 31 31 32 32 32 32 33 34 34 34 34 33 33 32
34 34 33 33 33 33 33 33 33 33 33 34 34 34 34 32 32 31 31 32 32 32 32 32 32 32 32 32 32 32 32 32 32 33 32 32 33 34 34 34 34 33 33 33
33 34 34 34 33 33 32 32 32 32 32 33 33 33 32 32 31 31 31 31 31 30 30 31 31 32 33 33 33 32 32 32 32 33 33 32 33 33 33 33 33 32 32 31
30 31 32 33 33 33 33 32 32 31 32 31 31 30 31 31 31 31 31 31 31 31 30 30 30 31 31 31 31 31 32 32 33 33 32 32 32 32 32 32 32 32 32 32
29 30 30 31 32 32 32 32 32 32 31 31 31 30 30 30 31 31 31 31 31 30 29 29 29 29 29 30 30 30 30 30 31 31 30 30 31 32 32 31 31 31 31 31
29 29 29 29 29 30 30 30 30 29 30 30 30 30 29 30 30 30 30 30 29 28 28 29 29 29 29 29 29 29 29 29 30 29 28 29 30 31 31 30 30 30 30 30
28 28 28 27 27 28 28 28 29 29 29 29 29 29 29 29 29 29 29 28 28 29 29 29 28 28 28 28 29 29 28 28 28 28 28 29 29 30 29 28 28 29 29 29
26 26 27 27 26 26 26 26 27 28 28 28 29 28 28 28 28 27 27 28 28 28 28 28 27 27 27 27 27 27 26 27 27 27 27 27 28 28 27 28 28 28 29 29
24 24 23 23 23 24 25 25 25 26 26 26 27 27 26 26 26 27 27 28 28 28 28 27 27 27 26 26 26 26 26 26 26 27 27 28 29 28 28 27 28 28 29 30
22 21 20 20 20 20 21 22 22 23 24 24 24 24 25 25 26 27 27 27 27 27 26 26 26 26 25 25 25 24 25 26 26 27 27 28 28 28 27 27 28 29 29 30
19 19 19 19 18 18 18 20 21 22 22 22 22 23 24 25 25 25 26 25 25 25 25 25 25 24 24 24 24 24 24 25 25 26 27 27 27 26 27 28 29 29 30 30
15 16 16 16 16 16 17 18 19 20 20 21 22 21 22 22 22 23 23 23 23 23 23 24 24 23 23 23 23 23 24 25 26 26 26 26 25 26 27 27 28 29 30 30
Wind_Direction
235 237 239 245 246 250 251 250 250 254 256 257 260 262 261 263 268 271 273 275 277 279 284 287 288 290 291 294 296 297 298 300 299 299 300 302 304 305 306 307 308 308 307 308
241 241 240 241 245 249 249 251 252 255 256 260 263 262 263 268 271 272 272 272 274 277 280 283 285 287 288 290 292 293 294 296 297 298 299 300 301 303 305 307 307 304 303 304
243 243 243 244 242 246 250 254 254 255 259 262 260 261 265 267 269 270 274 272 274 275 276 280 283 286 288 289 289 291 292 293 293 295 295 297 300 302 303 304 304 303 301 301
246 246 245 243 245 250 252 254 256 257 261 262 260 263 265 265 265 269 271 273 274 274 277 281 282 286 288 289 289 291 292 292 292 293 294 296 298 300 303 303 303 302 300 300
245 247 248 246 246 247 251 253 256 259 260 260 261 264 265 266 267 267 272 274 274 275 276 277 281 284 287 289 290 292 291 293 293 292 293 294 296 298 298 299 299 300 300 299
244 245 243 246 250 249 250 255 256 257 259 261 262 264 266 269 270 269 271 273 274 276 278 280 281 284 287 287 289 291 291 292 291 291 291 292 294 295 296 298 299 300 300 299
245 245 246 248 252 252 250 255 259 261 261 262 264 265 268 272 273 272 273 273 274 276 277 278 280 282 285 286 287 289 289 291 290 289 289 291 293 293 295 298 299 299 301 300
246 246 247 249 252 252 251 254 257 260 261 263 265 268 270 271 271 270 270 270 272 274 275 276 278 280 283 284 286 288 288 289 290 288 288 289 292 294 295 297 298 299 298 298
245 248 249 250 252 254 254 256 259 260 262 265 266 268 269 270 269 269 269 270 271 273 275 276 277 279 281 282 284 286 287 288 289 288 289 290 292 293 294 295 296 297 296 296
244 245 249 252 253 256 259 260 261 262 265 267 268 268 268 268 268 268 270 270 270 271 274 276 276 278 280 280 281 282 285 287 287 288 288 289 291 292 294 295 295 296 297 296
246 249 251 250 253 257 260 262 264 266 267 267 267 268 268 268 267 266 267 267 269 271 272 273 274 276 279 278 278 280 282 285 286 287 287 289 291 292 293 294 296 296 297 297
249 251 253 252 254 257 260 261 264 265 266 266 266 267 267 267 267 266 267 269 267 269 270 271 273 276 277 278 279 279 281 283 285 286 288 289 292 292 293 293 295 296 297 298
250 251 256 255 255 258 260 261 264 266 267 268 267 267 267 267 266 265 267 268 266 268 269 270 272 275 276 277 278 278 279 281 283 285 287 290 291 293 294 294 295 296 297 298
252 256 258 258 259 261 262 263 265 266 267 268 267 268 269 268 266 266 267 267 267 268 269 270 273 275 276 276 278 279 280 281 282 285 288 290 291 292 294 295 296 296 297 297
255 257 258 258 260 261 262 262 264 265 265 265 266 268 268 268 268 266 266 267 267 268 269 271 273 275 276 276 277 279 280 282 285 286 287 289 290 291 294 295 295 296 298 298
256 256 257 259 261 260 261 262 263 264 264 265 266 267 266 268 269 267 267 268 269 269 270 271 272 273 274 276 278 279 281 282 284 285 286 288 290 291 293 294 295 296 297 298
258 258 259 260 261 261 261 262 262 263 264 265 266 266 267 266 267 268 267 268 270 271 271 272 272 273 273 275 276 277 279 282 283 284 286 288 290 291 292 293 294 295 296 298
261 261 261 261 260 260 261 261 262 263 263 264 264 264 266 265 266 266 268 269 270 271 272 272 273 273 274 275 276 276 277 281 283 285 286 287 289 291 292 294 295 296 296 297
262 262 262 262 261 260 260 261 261 261 262 263 263 264 265 264 265 267 267 269 270 270 271 273 274 275 274 275 276 275 276 279 283 286 286 288 290 291 292 294 295 296 296 297
262 262 262 262 261 260 260 260 261 261 261 263 264 264 263 264 266 267 268 268 269 271 271 273 275 277 276 277 278 278 278 279 282 285 286 288 290 290 292 294 295 296 297 297
261 261 261 262 261 260 259 259 260 260 261 263 263 263 263 264 265 267 269 269 269 270 271 273 275 277 278 278 279 281 280 280 282 285 287 289 291 293 294 294 295 296 297 297
262 262 262 262 263 262 261 261 261 261 262 263 264 263 263 263 265 266 267 269 271 270 271 273 276 277 277 278 279 281 281 280 282 285 287 288 291 293 294 295 296 297 297 297
266 266 265 264 263 261 261 261 261 261 261 262 263 264 264 264 264 265 265 267 269 270 271 273 275 277 278 278 279 280 282 282 282 284 286 289 292 293 293 294 296 297 298 297
265 266 266 264 262 261 260 261 261 262 260 259 260 261 261 261 262 264 267 269 270 271 272 274 275 277 279 279 278 279 282 284 284 285 286 289 292 293 295 295 296 297 298 298
264 263 263 263 263 262 261 262 262 263 262 260 260 261 259 259 261 264 266 268 270 271 272 274 275 276 278 279 279 280 282 284 286 287 288 291 293 294 295 296 297 298 298 299
263 261 261 262 262 262 262 262 263 263 261 260 260 261 261 262 263 264 265 266 268 270 271 273 274 275 276 278 278 279 282 284 286 287 289 291 293 294 295 297 298 299 299 300
261 260 259 259 259 262 265 266 265 264 262 260 260 261 263 264 264 266 267 267 268 270 272 272 272 272 275 277 278 280 283 286 288 290 291 292 294 296 298 299 299 300 300 302
Height
5880 5883 5885 5886 5888 5889 5890 5891 5892 5892 5891 5890 5889 5889 5888 5887 5888 5888 5888 5888 5888 5888 5887 5886 5886 5886 5885 5884 5883 5882 5881 5880 5878 5877 5876 5874 5873 5871 5869 5867 5865 5862 5860 5859
5874 5876 5878 5880 5882 5883 5885 5885 5886 5886 5885 5884 5884 5884 5883 5882 5882 5883 5883 5882 5883 5883 5883 5882 5882 5881 5880 5879 5878 5877 5876 5875 5874 5872 5871 5870 5868 5866 5864 5862 5860 5858 5856 5854
5868 5870 5872 5874 5877 5878 5879 5879 5880 5880 5880 5879 5878 5877 5877 5877 5877 5877 5878 5878 5878 5878 5877 5877 5876 5876 5875 5874 5873 5872 5871 5870 5869 5867 5866 5864 5863 5861 5859 5857 5855 5853 5851 5849
5862 5864 5865 5870 5870 5871 5872 5872 5873 5873 5873 5872 5872 5871 5871 5871 5871 5872 5872 5872 5872 5872 5871 5871 5870 5870 5869 5868 5867 5866 5865 5864 5863 5862 5860 5859 5857 5855 5853 5851 5849 5846 5845 5843
5855 5857 5859 5862 5862 5864 5866 5866 5866 5866 5865 5865 5865 5865 5864 5864 5865 5866 5866 5866 5866 5866 5864 5865 5864 5864 5863 5862 5861 5860 5859 5858 5856 5856 5855 5853 5851 5849 5847 5845 5843 5841 5839 5837
5849 5851 5853 5855 5855 5856 5859 5858 5858 5859 5859 5859 5859 5859 5858 5857 5858 5859 5859 5859 5859 5859 5859 5858 5858 5858 5857 5857 5856 5855 5853 5852 5850 5849 5848 5846 5844 5843 5841 5839 5837 5834 5832 5830
5841 5842 5844 5845 5846 5849 5852 5851 5850 5851 5852 5851 5851 5851 5851 5851 5852 5852 5851 5852 5852 5853 5853 5852 5852 5851 5851 5850 5849 5848 5846 5845 5844 5842 5841 5839 5837 5835 5834 5832 5830 5827 5825 5823
5833 5835 5837 5836 5838 5840 5840 5841 5842 5842 5842 5843 5843 5843 5843 5844 5844 5844 5844 5845 5845 5845 5845 5845 5844 5844 5843 5843 5841 5840 5839 5838 5836 5834 5833 5831 5829 5828 5826 5824 5822 5820 5817 5815
5824 5827 5827 5828 5829 5830 5831 5832 5834 5834 5834 5835 5835 5836 5836 5836 5836 5835 5835 5836 5837 5837 5837 5836 5836 5836 5835 5835 5833 5832 5831 5830 5828 5826 5825 5823 5822 5820 5818 5816 5813 5811 5809 5807
5814 5815 5817 5819 5820 5821 5823 5824 5824 5824 5825 5826 5826 5826 5827 5827 5827 5827 5827 5827 5828 5828 5828 5828 5827 5827 5827 5826 5825 5824 5823 5822 5820 5819 5817 5815 5814 5812 5810 5808 5805 5803 5800 5797
5805 5807 5809 5810 5811 5813 5814 5815 5816 5816 5817 5817 5816 5817 5818 5818 5818 5818 5818 5818 5819 5819 5819 5819 5819 5819 5818 5817 5816 5815 5814 5813 5812 5810 5809 5807 5805 5803 5801 5799 5796 5794 5791 5788
5796 5797 5799 5801 5802 5803 5805 5806 5806 5807 5807 5807 5807 5807 5808 5808 5808 5808 5808 5809 5809 5810 5810 5811 5810 5810 5809 5808 5807 5806 5805 5804 5803 5802 5800 5799 5797 5795 5792 5791 5788 5785 5782 5780
5786 5787 5788 5790 5792 5794 5795 5796 5797 5797 5797 5798 5798 5798 5798 5798 5798 5799 5799 5799 5798 5800 5801 5801 5801 5801 5799 5798 5798 5797 5796 5795 5794 5793 5791 5789 5788 5786 5784 5782 5779 5777 5774 5771
5777 5779 5780 5780 5781 5783 5785 5786 5787 5787 5787 5788 5788 5788 5788 5789 5789 5790 5790 5790 5791 5791 5792 5792 5792 5791 5790 5789 5789 5788 5787 5787 5785 5784 5782 5781 5779 5778 5775 5773 5771 5768 5766 5763
5768 5769 5770 5771 5772 5773 5774 5776 5777 5777 5777 5778 5778 5779 5779 5779 5780 5780 5780 5781 5782 5782 5783 5783 5783 5782 5781 5780 5780 5779 5779 5778 5776 5775 5774 5772 5771 5769 5767 5764 5761 5759 5757 5754
5758 5759 5760 5761 5762 5763 5765 5766 5767 5767 5767 5768 5769 5769 5769 5770 5770 5771 5771 5772 5772 5773 5773 5773 5773 5773 5772 5772 5771 5770 5770 5769 5767 5766 5765 5763 5761 5759 5758 5755 5753 5750 5748 5745
5749 5750 5752 5752 5753 5754 5755 5756 5757 5757 5758 5759 5759 5759 5760 5761 5761 5761 5762 5763 5763 5763 5763 5763 5763 5763 5763 5763 5762 5761 5760 5759 5758 5757 5755 5754 5752 5750 5748 5746 5744 5742 5739 5736
5740 5741 5742 5743 5743 5744 5745 5746 5747 5748 5748 5748 5749 5749 5750 5751 5752 5752 5753 5754 5754 5754 5754 5754 5754 5754 5753 5753 5752 5752 5751 5750 5749 5748 5747 5745 5744 5741 5739 5737 5735 5732 5730 5728
5731 5732 5732 5733 5734 5735 5735 5736 5737 5738 5739 5739 5739 5740 5741 5742 5742 5743 5744 5744 5745 5745 5745 5745 5745 5744 5744 5743 5743 5742 5742 5741 5740 5738 5737 5736 5734 5733 5730 5728 5726 5724 5722 5719
5722 5722 5723 5723 5724 5725 5726 5727 5728 5729 5729 5730 5730 5731 5732 5733 5734 5735 5735 5736 5736 5736 5736 5736 5736 5735 5735 5735 5734 5734 5733 5732 5731 5730 5729 5728 5726 5724 5722 5720 5717 5715 5713 5710
5713 5713 5714 5714 5715 5716 5717 5717 5718 5719 5720 5721 5721 5722 5723 5724 5725 5726 5727 5727 5728 5728 5728 5728 5727 5727 5727 5726 5726 5725 5725 5724 5723 5722 5720 5720 5718 5716 5714 5711 5709 5707 5705 5702
5705 5705 5706 5706 5707 5707 5708 5709 5709 5710 5711 5712 5712 5713 5714 5715 5716 5717 5718 5719 5720 5720 5720 5720 5719 5719 5719 5718 5717 5717 5716 5715 5715 5714 5713 5711 5710 5708 5706 5704 5702 5699 5697 5694
5697 5697 5698 5698 5699 5699 5700 5700 5701 5702 5703 5704 5705 5705 5706 5707 5708 5709 5710 5711 5711 5712 5712 5712 5712 5711 5711 5710 5710 5709 5708 5708 5707 5706 5705 5703 5701 5700 5698 5696 5694 5691 5689 5686
5690 5690 5690 5691 5691 5692 5692 5693 5693 5694 5695 5696 5696 5697 5698 5699 5700 5701 5702 5703 5703 5704 5704 5704 5704 5704 5703 5703 5702 5702 5701 5701 5700 5699 5697 5696 5694 5692 5690 5688 5686 5683 5681 5678
5683 5684 5684 5684 5685 5685 5685 5686 5687 5687 5687 5688 5689 5690 5691 5692 5693 5694 5694 5695 5695 5696 5696 5697 5697 5696 5696 5696 5695 5695 5694 5694 5693 5691 5690 5688 5686 5684 5682 5680 5678 5675 5672 5669
5678 5678 5679 5679 5679 5679 5679 5680 5680 5680 5681 5681 5682 5683 5684 5685 5686 5687 5687 5687 5688 5688 5689 5689 5689 5689 5689 5689 5689 5688 5688 5687 5686 5684 5683 5681 5679 5677 5674 5672 5670 5667 5664 5661
5672 5673 5673 5674 5674 5674 5674 5674 5674 5674 5675 5676 5676 5677 5678 5678 5679 5679 5680 5680 5681 5682 5682 5682 5682 5682 5682 5682 5682 5681 5681 5680 5678 5677 5675 5673 5671 5669 5667 5664 5662 5659 5656 5653